C/2007 E2 ( Lovejoy )

Japanese version
Home page
Total 6,336 html files since Dec. 4, 1995
Updated on December 4, 2007

---------------------------------------------------------------------

* Profile

Discovery Date March 15, 2007
Magnitude 10 mag
Discoverer Terry Lovejoy (Thornlands, Queensland, Australia)

* Pictures

* Orbital Elements

The following orbital elements are taken from MPC 60664:

Epoch 2007 Apr. 10.0 TT = JDT 2454200.5
T 2007 Mar. 27.5045 TT                                  MPC
q   1.092956             (2000.0)            P               Q
z  +0.000619       Peri.  340.5374      -0.5477785      -0.2797640
 +/-0.000019       Node   232.4327      -0.5729465      -0.5613071
e   0.999324       Incl.   95.8844      -0.6096482      +0.7788879
From 1520 observations 2007 Mar. 18-Aug. 23, mean residual 0".6.

* Finding Charts

* Magnitudes Graph

        m1 = 8.0 + 5 log d + 20.0 log r

---------------------------------------------------------------------

The orbital elements are published at the MPC Ephemerides and Orbital Elements.
The charts are made with StellaNavigator Ver.2.0 for Windows (AstroArts / ASCII).
The magnitudes graphs are made with Comet for Windows.

---------------------------------------------------------------------

Copyright(C) 1995-2008 Seiichi Yoshida (comet@aerith.net). All rights reserved.